Location: Mountain View
(37.3861°N, 122.0839°W)
Time: 13:05:34
(UTC-08:00)

OTV 5 (USA 277) - Visible Passes

Search period start: 19 January 2018 00:00
Search period end: 29 January 2018 00:00
Orbit: 404 x 417 km, 43.0° (Epoch: 07 September)

Date Brightness Start Highest point End Pass type
(mag) Time Alt. Az. Time Alt. Az. Time Alt. Az.
20 Jan ? 18:52:25 10° SSW 18:54:32 20° SSE 18:54:32 20° SSE visible
21 Jan ? 18:02:22 10° S 18:04:08 14° SE 18:05:53 10° ESE visible
21 Jan ? 19:37:42 10° WSW 19:38:56 21° WSW 19:38:56 21° WSW visible
22 Jan ? 18:46:44 10° SW 18:50:01 53° SSE 18:50:30 47° ESE visible
23 Jan ? 17:55:56 10° SSW 17:59:01 33° SSE 18:02:01 10° E visible
23 Jan ? 19:32:59 10° W 19:34:47 27° W 19:34:47 27° W visible
24 Jan ? 18:41:49 10° WSW 18:45:10 68° NNW 18:46:14 39° NE visible
25 Jan ? 17:50:43 10° WSW 17:54:04 83° SSE 17:57:27 10° ENE visible
25 Jan ? 19:28:31 10° WNW 19:30:25 25° NW 19:30:25 25° NW visible
26 Jan ? 18:37:15 10° W 18:40:27 39° NNW 18:41:49 26° NE visible
27 Jan ? 19:24:01 10° WNW 19:25:57 24° NW 19:25:57 24° NW visible
28 Jan ? 18:32:48 10° WNW 18:35:51 30° N 18:37:20 21° NE visible
